When you browse on this site, cookies collect data to enhance your experience and personalize the content and advertising you see.
Visit our Privacy Policy to learn more. By continuing to use the site, you agree to this use of cookies and data.
  • In Czech Republic
  • List of Countries
  • For 7 days
  • Water Temperature
  • Weather Map
  • Weather Widgets
  • user-avatar
    Login

    Hourly Weather Basse Santa Su

    Today, 17 September, Tuesday

    Time Temperature Precipitation Wind Pressure Humidity
    00:00 +25°C° 1 mm 2 mps 757 mmHg 92%
    01:00 +25°C° 1 mm 2 mps 756 mmHg 94%
    02:00 +24°C° 1 mm 2 mps 756 mmHg 95%
    03:00 +24°C° 0 mm 2 mps 756 mmHg 95%
    04:00 +24°C° 0 mm 1 mps 756 mmHg 95%
    05:00 +24°C° 0 mm 1 mps 756 mmHg 95%
    06:00 +25°C° 1.3 mm 1 mps 756 mmHg 95%
    07:00 +25°C° 1.3 mm 2 mps 757 mmHg 95%
    08:00 +25°C° 1.3 mm 2 mps 757 mmHg 95%
    09:00 +28°C° 0 mm 2 mps 757 mmHg 87%
    10:00 +30°C° 0 mm 2 mps 756 mmHg 79%
    11:00 +32°C° 0 mm 1 mps 756 mmHg 72%
    12:00 +33°C° 0 mm 1 mps 755 mmHg 68%
    13:00 +35°C° 0 mm 2 mps 754 mmHg 63%
    14:00 +36°C° 0 mm 2 mps 754 mmHg 59%
    15:00 +35°C° 0 mm 2 mps 754 mmHg 64%
    16:00 +34°C° 0 mm 2 mps 754 mmHg 69%
    17:00 +34°C° 0 mm 2 mps 753 mmHg 74%
    18:00 +31°C° 0.2 mm 2 mps 754 mmHg 78%
    19:00 +30°C° 0.2 mm 2 mps 755 mmHg 82%
    20:00 +29°C° 0.2 mm 2 mps 755 mmHg 86%
    21:00 +28°C° 1.6 mm 2 mps 756 mmHg 89%
    22:00 +27°C° 1.6 mm 2 mps 756 mmHg 92%
    23:00 +27°C° 1.6 mm 2 mps 756 mmHg 95%

    Tomorrow, 18 September, Wednesday

    Time Temperature Precipitation Wind Pressure Humidity
    00:00 +26°C° 3.6 mm 2 mps 756 mmHg 96%
    01:00 +26°C° 3.6 mm 2 mps 756 mmHg 97%
    02:00 +26°C° 3.6 mm 2 mps 755 mmHg 98%
    03:00 +25°C° 3.2 mm 2 mps 755 mmHg 97%
    04:00 +25°C° 3.2 mm 2 mps 756 mmHg 97%
    05:00 +25°C° 3.2 mm 2 mps 756 mmHg 96%
    06:00 +26°C° 0.2 mm 3 mps 756 mmHg 95%
    07:00 +26°C° 0.2 mm 3 mps 756 mmHg 94%
    08:00 +27°C° 0.2 mm 3 mps 757 mmHg 94%
    09:00 +28°C° 0 mm 3 mps 757 mmHg 89%
    10:00 +29°C° 0 mm 3 mps 757 mmHg 85%
    11:00 +29°C° 0 mm 3 mps 756 mmHg 81%
    12:00 +30°C° 0 mm 3 mps 756 mmHg 76%
    13:00 +33°C° 0 mm 3 mps 756 mmHg 72%
    14:00 +34°C° 0 mm 3 mps 756 mmHg 67%
    15:00 +31°C° 0 mm 2 mps 756 mmHg 72%
    16:00 +30°C° 0 mm 2 mps 756 mmHg 77%
    17:00 +29°C° 0 mm 2 mps 756 mmHg 83%
    18:00 +28°C° 0 mm 2 mps 756 mmHg 85%
    19:00 +28°C° 0 mm 2 mps 757 mmHg 87%
    20:00 +27°C° 0 mm 1 mps 757 mmHg 89%
    21:00 +27°C° 0 mm 1 mps 757 mmHg 89%
    22:00 +26°C° 0 mm 1 mps 758 mmHg 89%
    23:00 +26°C° 0 mm 1 mps 758 mmHg 90%

    Day after tomorrow, 19 September, Thursday

    Time Temperature Precipitation Wind Pressure Humidity
    00:00 +26°C° 0 mm 1 mps 757 mmHg 91%
    01:00 +25°C° 0 mm 1 mps 757 mmHg 91%
    02:00 +25°C° 0 mm 1 mps 757 mmHg 92%
    03:00 +25°C° 0 mm 1 mps 757 mmHg 92%
    04:00 +25°C° 0 mm 1 mps 757 mmHg 93%
    05:00 +25°C° 0 mm 2 mps 757 mmHg 93%
    06:00 +26°C° 0 mm 2 mps 757 mmHg 89%
    07:00 +27°C° 0 mm 2 mps 758 mmHg 86%
    08:00 +28°C° 0 mm 2 mps 758 mmHg 82%
    09:00 +29°C° 0 mm 2 mps 758 mmHg 77%
    10:00 +31°C° 0 mm 2 mps 757 mmHg 72%
    11:00 +32°C° 0 mm 2 mps 757 mmHg 67%
    12:00 +34°C° 0 mm 2 mps 757 mmHg 64%
    13:00 +34°C° 0 mm 1 mps 756 mmHg 62%
    14:00 +34°C° 0 mm 1 mps 756 mmHg 59%
    15:00 +34°C° 0.1 mm 1 mps 756 mmHg 63%
    16:00 +33°C° 0.1 mm 1 mps 756 mmHg 68%
    17:00 +30°C° 0.1 mm 0 mps 756 mmHg 72%
    18:00 +31°C° 0.7 mm 1 mps 756 mmHg 77%
    19:00 +29°C° 0.7 mm 2 mps 757 mmHg 83%
    20:00 +27°C° 0.7 mm 2 mps 757 mmHg 88%
    21:00 +27°C° 0.4 mm 2 mps 758 mmHg 90%
    22:00 +26°C° 0.4 mm 3 mps 758 mmHg 93%
    23:00 +26°C° 0.4 mm 3 mps 758 mmHg 95%

    20 September, Friday

    Time Temperature Precipitation Wind Pressure Humidity
    00:00 +25°C° 0.1 mm 2 mps 758 mmHg 96%
    01:00 +25°C° 0.1 mm 2 mps 757 mmHg 97%
    02:00 +25°C° 0.1 mm 2 mps 757 mmHg 98%
    03:00 +25°C° 0.3 mm 1 mps 757 mmHg 98%
    04:00 +25°C° 0.3 mm 1 mps 757 mmHg 98%
    05:00 +25°C° 0.3 mm 1 mps 758 mmHg 98%
    06:00 +25°C° 0.2 mm 1 mps 758 mmHg 95%
    07:00 +26°C° 0.2 mm 1 mps 758 mmHg 93%
    08:00 +27°C° 0.2 mm 1 mps 758 mmHg 90%
    09:00 +29°C° 0 mm 1 mps 758 mmHg 83%
    10:00 +31°C° 0 mm 2 mps 757 mmHg 75%
    11:00 +34°C° 0 mm 2 mps 757 mmHg 67%
    12:00 +34°C° 0 mm 2 mps 756 mmHg 64%
    13:00 +35°C° 0 mm 2 mps 756 mmHg 61%
    14:00 +36°C° 0 mm 2 mps 755 mmHg 58%
    15:00 +35°C° 0.3 mm 2 mps 755 mmHg 65%
    16:00 +33°C° 0.3 mm 1 mps 755 mmHg 71%
    17:00 +32°C° 0.3 mm 1 mps 755 mmHg 77%
    18:00 +31°C° 0.2 mm 1 mps 755 mmHg 81%
    19:00 +30°C° 0.2 mm 2 mps 755 mmHg 85%
    20:00 +28°C° 0.2 mm 2 mps 756 mmHg 89%
    21:00 +28°C° 0.7 mm 2 mps 756 mmHg 91%
    22:00 +28°C° 0.7 mm 2 mps 756 mmHg 92%
    23:00 +27°C° 0.7 mm 3 mps 757 mmHg 94%

    21 September, Saturday

    Time Temperature Precipitation Wind Pressure Humidity
    00:00 +27°C° 3.6 mm 3 mps 756 mmHg 95%
    01:00 +27°C° 3.6 mm 3 mps 756 mmHg 96%
    02:00 +26°C° 3.6 mm 3 mps 756 mmHg 97%
    03:00 +26°C° 0.1 mm 3 mps 756 mmHg 97%
    04:00 +26°C° 0.1 mm 2 mps 756 mmHg 98%
    05:00 +26°C° 0.1 mm 2 mps 756 mmHg 98%
    06:00 +27°C° 0 mm 2 mps 756 mmHg 95%
    07:00 +28°C° 0 mm 1 mps 757 mmHg 93%
    08:00 +28°C° 0 mm 1 mps 757 mmHg 91%
    09:00 +30°C° 0 mm 1 mps 757 mmHg 82%
    10:00 +32°C° 0 mm 1 mps 757 mmHg 74%
    11:00 +34°C° 0 mm 1 mps 757 mmHg 65%
    12:00 +34°C° 0.3 mm 1 mps 756 mmHg 65%
    13:00 +34°C° 0.3 mm 1 mps 755 mmHg 64%
    14:00 +35°C° 0.3 mm 1 mps 755 mmHg 64%
    15:00 +33°C° 1.7 mm 1 mps 754 mmHg 71%
    16:00 +32°C° 1.7 mm 1 mps 754 mmHg 77%
    17:00 +31°C° 1.7 mm 1 mps 754 mmHg 83%
    18:00 +30°C° 0.7 mm 1 mps 755 mmHg 86%
    19:00 +29°C° 0.7 mm 2 mps 756 mmHg 88%
    20:00 +28°C° 0.7 mm 2 mps 756 mmHg 90%
    21:00 +27°C° 0.9 mm 2 mps 757 mmHg 92%
    22:00 +27°C° 0.9 mm 3 mps 757 mmHg 94%
    23:00 +26°C° 0.9 mm 3 mps 758 mmHg 95%

    22 September, Sunday

    Time Temperature Precipitation Wind Pressure Humidity
    00:00 +26°C° 0.4 mm 3 mps 757 mmHg 96%
    01:00 +26°C° 0.4 mm 2 mps 757 mmHg 96%
    02:00 +26°C° 0.4 mm 2 mps 757 mmHg 97%
    03:00 +26°C° 0 mm 2 mps 757 mmHg 97%
    04:00 +26°C° 0 mm 1 mps 757 mmHg 97%
    05:00 +26°C° 0 mm 1 mps 757 mmHg 97%
    06:00 +26°C° 0 mm 1 mps 757 mmHg 94%
    07:00 +27°C° 0 mm 1 mps 758 mmHg 92%
    08:00 +28°C° 0 mm 1 mps 758 mmHg 90%
    09:00 +29°C° 0 mm 1 mps 758 mmHg 84%
    10:00 +30°C° 0 mm 2 mps 758 mmHg 78%
    11:00 +31°C° 0 mm 2 mps 758 mmHg 72%
    12:00 +32°C° 0 mm 2 mps 757 mmHg 71%
    13:00 +32°C° 0 mm 2 mps 756 mmHg 70%
    14:00 +32°C° 0 mm 1 mps 756 mmHg 69%
    15:00 +32°C° 0 mm 1 mps 756 mmHg 73%
    16:00 +31°C° 0 mm 1 mps 756 mmHg 76%
    17:00 +31°C° 0 mm 1 mps 756 mmHg 79%
    18:00 +30°C° 0 mm 1 mps 757 mmHg 82%
    19:00 +29°C° 0 mm 1 mps 757 mmHg 84%
    20:00 +28°C° 0 mm 1 mps 758 mmHg 87%
    21:00 +28°C° 0 mm 1 mps 758 mmHg 88%
    22:00 +27°C° 0 mm 1 mps 758 mmHg 90%
    23:00 +27°C° 0 mm 2 mps 759 mmHg 91%
    Show more